Weather observations for the past three days for
Corsicana, Campbell Field-Corsicana Municipal Airport
Imperial (Metric)
Date Time (cdt) Wind (mph) Vis. (mi.) Weather Sky Cond. Temperature (ºF) Relative Humidity Wind Chill (°F) Heat Index (°F) Pressure Precipitation (in)
Air Dwpt 6 hour altimeter (in) sea level (mb) 1 hr 3 hr 6 hr
Max. Min.
17 16:53 SE 17 G 24 10.00 Fair CLR 93.9 73 51% 103 29.8 1008.3
17 15:53 SE 14 G 21 10.00 A Few Clouds FEW070 FEW090 93.9 73 51% 103 29.81 1008.9
17 14:53 SE 16 G 25 10.00 A Few Clouds FEW044 93.9 73 51% 103 29.83 1009.4
17 13:53 SE 15 G 25 10.00 A Few Clouds FEW038 91.9 73 54% 101 29.85 1010.1
17 12:53 S 20 G 25 10.00 Mostly Cloudy SCT038 SCT047 BKN070 90 72 91 78.1 56% 97 29.87 1010.8
17 11:53 SE 17 G 23 10.00 A Few Clouds FEW032 90 73.9 59% 99 29.88 1011.2
17 10:53 SE 17 G 24 10.00 Mostly Cloudy BKN026 BKN034 BKN041 88 73.9 63% 97 29.89 1011.5
17 09:53 S 17 G 24 10.00 Overcast SCT016 BKN023 OVC030 86 75.9 72% 96 29.89 1011.5
17 08:53 SE 15 10.00 Overcast BKN010 BKN015 OVC031 82 75.9 82% 89 29.88 1011.2
17 07:53 SE 9 10.00 Overcast BKN007 OVC011 79 75 88% 83 29.88 1011.0
17 06:53 SE 7 10.00 Overcast BKN015 OVC029 78.1 73.9 82 77 87% 81 29.87 1010.7
17 05:53 S 7 10.00 Partly Cloudy FEW018 SCT027 78.1 73.9 87% 81 29.86 1010.4
17 04:53 SE 8 10.00 Fair CLR 78.1 73 85% 81 29.85 1010.3
17 03:53 S 8 10.00 Fair CLR 78.1 73 85% 81 29.85 1010.3
17 02:53 S 7 10.00 Fair CLR 79 72 79% 82 29.85 1010.2
17 01:53 S 10 10.00 Fair CLR 81 72 74% 85 29.86 1010.6
17 00:53 S 14 10.00 Fair CLR 81 71.1 91 81 72% 85 29.86 1010.5
16 23:53 SE 12 10.00 Fair CLR 82.9 70 65% 87 29.86 1010.5
16 22:53 SE 9 10.00 Fair CLR 84 70 63% 88 29.85 1010.3
16 21:54 SE 7 10.00 Fair CLR 82 70 67% 86 29.85 1010.1
16 20:53 SE 6 10.00 Fair CLR 82.9 71.1 67% 88 29.83 1009.7
16 19:53 SE 6 10.00 Fair CLR 88 69.1 54% 92 29.83 1009.5
16 18:53 SE 10 10.00 Fair CLR 91 66.9 93 90 45% 94 29.83 1009.4
16 17:53 SE 13 10.00 Fair CLR 91.9 69.1 47% 97 29.83 1009.5
16 16:53 SE 12 10.00 Fair CLR 93 66.9 42% 97 29.83 1009.6
16 15:53 S 12 10.00 A Few Clouds FEW055 93 68 44% 97 29.85 1010.2
16 14:53 S 13 10.00 Partly Cloudy FEW048 SCT060 91.9 70 49% 98 29.86 1010.7
16 13:53 SE 12 10.00 A Few Clouds FEW047 91.9 71.1 51% 99 29.89 1011.5
16 12:53 SE 14 10.00 Partly Cloudy SCT044 90 69.1 91 75.9 50% 95 29.9 1012.0
16 11:53 S 16 G 21 10.00 A Few Clouds FEW043 89.1 70 53% 94 29.91 1012.3
16 10:53 S 10 10.00 Fair CLR 88 72 59% 95 29.92 1012.6
16 09:53 S 10 G 20 10.00 Fair CLR 86 71.1 61% 92 29.92 1012.7
16 08:53 S 10 10.00 Fair CLR 82 73 74% 87 29.93 1013.0
16 07:53 S 6 10.00 Fair CLR 78.1 72 82% 80 29.92 1012.7
16 06:53 S 6 9.00 Fair CLR 75.9 71.1 79 75 85% 76 29.9 1011.9
16 05:53 S 7 10.00 Fair CLR 75 71.1 88% 75 29.88 1011.3
16 04:53 S 7 10.00 Fair CLR 75 70 84% 75 29.88 1011.3
16 03:53 S 7 10.00 Fair CLR 77 70 79% 79 29.88 1011.0
16 02:53 S 8 10.00 Fair CLR 78.1 70 76% 80 29.88 1011.2
16 01:53 S 9 10.00 Fair CLR 79 70 74% 82 29.9 1012.0
16 00:53 S 7 10.00 Fair CLR 80.1 71.1 91 80.1 74% 84 29.91 1012.1
15 23:53 SE 8 10.00 Fair CLR 82 71.1 69% 86 29.9 1011.7
15 22:53 SE 6 10.00 Fair CLR 82 71.1 69% 86 29.89 1011.4
15 21:53 SE 6 10.00 Fair CLR 82 72 72% 87 29.87 1010.9
15 20:53 SE 5 10.00 Fair CLR 82.9 72 70% 88 29.86 1010.5
15 19:53 SE 6 10.00 Fair CLR 88 70 55% 93 29.86 1010.6
15 18:53 SE 9 10.00 Fair CLR 91 69.1 93 90 49% 96 29.86 1010.6
15 17:53 SE 10 10.00 A Few Clouds FEW055 91.9 68 46% 96 29.87 1010.7
15 15:53 SE 13 10.00 A Few Clouds FEW055 93 68 44% 97 29.89 1011.7
15 14:53 S 10 10.00 Fair CLR 91.9 69.1 47% 97 29.91 1012.1
15 13:53 SE 10 10.00 A Few Clouds FEW050 90 68 48% 94 29.92 1012.7
15 12:54 S 8 10.00 Partly Cloudy FEW045 SCT050 91 69.1 91 73.9 49% 96 29.95 1013.5
15 11:53 S 12 10.00 A Few Clouds FEW034 89.1 71.1 55% 95 29.96 1013.8
15 10:53 S 7 10.00 Fair CLR 87.1 72 61% 94 29.97 1014.1
15 09:53 W 7 10.00 Fair CLR 84.9 73.9 70% 92 29.98 1014.5
15 08:53 SW 5 10.00 Fair CLR 81 72 74% 85 29.99 1014.8
15 07:53 SE 3 10.00 Fair CLR 78.1 69.1 74% 80 29.99 1014.9
15 06:53 Calm 10.00 Fair CLR 73.9 66.9 79 73 79% 29.98 1014.5
15 05:53 SE 3 10.00 Fair CLR 73.9 66 76% 29.96 1013.9
15 04:53 SE 3 10.00 Fair CLR 75 66 74% 76 29.94 1013.2
15 03:53 SE 6 10.00 Fair CLR 75.9 66.9 74% 77 29.93 1012.9
15 02:53 SE 5 10.00 Fair CLR 78.1 66.9 69% 80 29.94 1013.2
15 01:53 SE 7 10.00 Fair CLR 78.1 66.9 69% 80 29.95 1013.5
15 00:53 SE 5 10.00 Fair CLR 78.1 68 91 78.1 71% 80 29.96 1013.8
14 23:53 SE 7 10.00 Fair CLR 79 69.1 72% 82 29.97 1014.1
14 22:53 SE 6 10.00 Fair CLR 80.1 69.1 69% 83 29.96 1013.8
14 21:53 E 6 10.00 Fair CLR 82 66 58% 84 29.95 1013.5
14 20:53 E 6 10.00 Fair CLR 82.9 66.9 59% 86 29.93 1013.0
14 19:53 E 6 10.00 Fair CLR 88 66.9 50% 91 29.92 1012.6
14 18:53 E 7 10.00 Fair CLR 91 66 95 90 44% 94 29.92 1012.4
14 17:53 E 7 10.00 Fair CLR 93 64 38% 95 29.91 1012.4
Date Time (cdt) Wind (mph) Vis. (mi.) Weather Sky Cond. Air Dwpt Max. Min. Relative Humidity Wind Chill (°F) Heat Index (°F) altimeter (in) sea level (mb) 1 hr 3 hr 6 hr
6 hour
Temperature (ºF) Pressure Precipitation (in)